Probability
13 13 10 13 16 19 16 23 23 19 16 16 16 19 19 16 19 16 16 16 19 23 16 19 10 6 16 10 16 16 13 19 23 19 10 6 6 6 6 10 13 6 6
13 19 16 13 13 19 16 16 23 23 19 19 23 23 19 19 16 19 19 23 19 23 26 16 6 10 6 13 13 16 16 19 23 16 10 3 6 3 3 0 13 13 10
10 16 16 13 13 16 13 19 19 23 26 26 19 19 19 19 19 19 16 19 23 32 29 19 10 10 10 13 13 6 10 16 19 10 6 6 3 3 3 3 3 6 10
16 16 16 19 16 16 19 16 19 23 19 19 19 19 23 26 26 23 19 29 26 32 29 26 19 13 13 13 16 13 10 10 19 16 6 10 10 10 6 6 3 6 10
10 10 10 16 19 16 16 16 16 16 19 16 19 19 19 23 26 23 19 35 35 32 35 29 26 26 23 16 13 16 13 16 19 19 19 13 6 10 13 13 10 6 6
13 13 13 10 13 16 19 23 23 16 19 23 16 19 23 19 23 23 23 29 29 26 32 29 26 26 29 19 19 16 16 16 19 16 16 19 16 13 10 10 10 10 13
16 16 6 10 13 13 19 23 23 23 23 23 23 23 23 19 23 23 23 23 23 23 26 23 23 26 29 23 19 16 19 13 16 16 19 19 16 16 10 10 13 13 10
16 16 10 10 16 13 16 23 23 26 23 23 23 23 26 26 26 26 26 23 29 26 26 26 23 19 23 26 19 19 16 19 16 19 19 19 19 16 13 13 13 13 3
16 13 16 13 16 16 16 19 26 26 26 23 23 23 23 23 23 23 19 26 29 26 29 29 26 23 23 19 10 16 16 16 19 19 16 16 19 16 13 10 13 10 10
16 6 6 13 13 13 19 19 26 26 26 23 23 23 19 19 23 26 29 23 26 29 26 23 23 23 23 16 13 16 16 19 19 16 16 16 16 16 13 10 10 6 16
16 13 16 19 19 19 19 19 19 19 23 23 23 26 26 29 29 29 29 26 19 23 26 19 19 23 23 19 16 13 13 13 10 13 13 13 16 16 13 10 6 10 10
10 10 13 13 13 10 13 16 19 16 19 23 23 23 26 26 29 26 23 23 16 16 19 16 16 13 16 16 16 19 16 13 10 10 13 13 10 10 10 10 10 6 10
13 10 13 13 10 10 10 10 10 13 16 16 16 19 19 19 16 16 16 16 16 23 19 19 16 16 16 16 19 19 16 16 16 13 10 10 10 10 10 10 13 13 6
13 16 13 10 10 10 10 13 13 13 13 13 16 16 13 10 13 13 16 13 13 16 16 13 16 16 16 19 23 16 16 16 16 13 6 6 6 10 10 10 13 13 13
13 13 16 13 10 10 13 13 16 10 10 13 6 6 10 10 10 10 10 6 10 16 13 13 10 10 16 16 16 16 19 19 16 13 6 3 3 6 6 10 13 16 13
16 10 6 6 6 6 6 13 13 10 10 10 10 10 6 6 6 6 6 6 6 6 10 6 10 13 13 6 6 10 16 16 16 10 6 6 3 3 0 0 3 6 13
13 10 10 10 10 6 6 6 10 13 10 10 10 10 10 6 6 6 6 6 6 6 6 6 6 13 16 3 3 6 13 10 13 10 10 10 0 0 3 0 0 0 0
10 6 10 6 6 3 3 6 10 6 13 10 10 10 10 10 10 10 10 10 10 10 6 6 6 6 3 3 3 3 3 6 6 6 6 3 3 0 0 3 0 10 6
3 3 0 3 0 3 3 6 13 10 13 10 10 6 10 13 13 10 10 10 13 13 10 6 6 3 3 3 3 3 0 3 3 3 0 0 0 0 0 3 0 3 6
10 0 0 0 3 0 3 3 6 10 10 10 10 6 6 10 13 13 10 13 13 10 13 13 10 6 6 3 3 0 0 0 0 3 0 0 0 0 0 0 0 0 3
6 3 3 3 3 3 3 6 6 6 13 10 10 10 6 6 6 10 13 6 10 10 10 6 3 3 3 0 0 0 3 3 0 0 0 0 0 0 0 0 0 0 0
3 6 6 6 3 3 3 6 10 6 10 10 10 10 6 6 6 3 0 6 6 10 6 3 3 0 0 0 0 0 0 0 6 6 10 3 0 0 0 0 0 0 0
6 6 3 3 3 3 3 6 6 6 6 10 10 10 6 6 0 0 3 3 0 6 6 6 0 0 0 0 0 0 0 0 3 3 3 0 0 0 0 0 0 0 0
6 6 3 3 3 3 3 6 6 6 6 10 10 10 6 3 3 3 3 3 3 3 3 0 0 0 0 0 3 0 0 0 0 3 0 0 0 0 0 0 0 0 0
3 6 6 6 6 6 6 6 6 6 6 6 10 6 6 6 0 0 0 0 0 0 0 0 0 0 0 0 0 3 3 6 0 3 3 0 0 0 0 0 0 0 0
3 3 6 6 6 6 6 6 6 6 6 3 3 6 6 3 3 3 0 0 0 0 0 0 0 0 0 0 0 0 3 3 0 0 3 3 3 3 3 3 0 0 0
Height
5909 5908 5907 5905 5905 5904 5903 5902 5901 5900 5899 5897 5896 5895 5894 5893 5892 5890 5889 5888 5888 5886 5885 5884 5883 5882 5881 5880 5879 5878 5877 5876 5876 5876 5877 5877 5877 5878 5878 5878 5878 5878 5877
5909 5908 5907 5906 5905 5904 5903 5902 5901 5900 5899 5898 5897 5896 5894 5893 5892 5890 5889 5888 5887 5886 5885 5883 5882 5881 5879 5878 5876 5875 5874 5874 5873 5873 5873 5874 5875 5874 5875 5874 5874 5874 5874
5910 5909 5908 5907 5906 5904 5903 5902 5902 5900 5899 5898 5897 5895 5894 5893 5891 5890 5889 5888 5887 5885 5884 5882 5881 5880 5878 5876 5874 5873 5872 5871 5871 5870 5871 5871 5871 5871 5871 5870 5871 5870 5870
5910 5909 5908 5907 5905 5904 5903 5902 5901 5900 5899 5898 5896 5895 5894 5892 5891 5890 5888 5887 5886 5884 5883 5881 5880 5878 5877 5875 5873 5871 5870 5869 5868 5867 5867 5868 5868 5868 5867 5867 5866 5866 5866
5909 5908 5907 5906 5905 5904 5903 5902 5901 5899 5898 5897 5895 5894 5893 5891 5890 5889 5887 5885 5884 5883 5881 5880 5878 5876 5875 5873 5871 5869 5868 5867 5866 5865 5864 5864 5864 5863 5863 5863 5862 5862 5861
5908 5907 5906 5905 5904 5903 5902 5901 5900 5899 5897 5896 5894 5893 5891 5890 5889 5887 5886 5884 5883 5881 5879 5878 5876 5874 5872 5871 5869 5867 5866 5864 5863 5862 5861 5860 5860 5859 5859 5859 5858 5857 5857
5906 5905 5904 5904 5902 5901 5900 5899 5898 5897 5895 5894 5892 5891 5890 5888 5887 5885 5884 5882 5881 5879 5877 5875 5873 5871 5870 5868 5867 5865 5864 5862 5861 5859 5858 5857 5856 5855 5854 5854 5853 5853 5852
5904 5903 5902 5901 5900 5899 5898 5897 5896 5895 5893 5891 5890 5889 5887 5885 5884 5882 5881 5879 5878 5876 5875 5873 5870 5868 5866 5865 5864 5862 5860 5859 5857 5855 5854 5852 5851 5850 5849 5848 5848 5847 5847
5902 5900 5899 5898 5897 5896 5895 5894 5892 5891 5890 5889 5887 5885 5884 5882 5880 5879 5877 5876 5874 5872 5871 5869 5867 5865 5863 5861 5859 5858 5856 5854 5853 5851 5849 5847 5846 5845 5844 5843 5842 5842 5841
5898 5897 5896 5895 5894 5893 5892 5890 5889 5887 5886 5885 5883 5882 5880 5878 5876 5875 5873 5871 5869 5868 5866 5865 5863 5861 5858 5857 5855 5853 5852 5850 5848 5846 5844 5842 5840 5839 5838 5836 5836 5835 5835
5894 5893 5892 5891 5890 5889 5887 5886 5884 5883 5881 5880 5879 5877 5875 5873 5872 5870 5869 5867 5865 5863 5862 5860 5858 5856 5854 5852 5850 5848 5846 5844 5842 5840 5838 5836 5834 5833 5831 5830 5829 5828 5827
5889 5888 5887 5886 5885 5884 5882 5881 5879 5877 5876 5875 5873 5872 5870 5869 5867 5865 5863 5862 5860 5858 5856 5854 5852 5850 5848 5846 5844 5842 5840 5838 5836 5833 5831 5829 5827 5826 5824 5823 5822 5821 5820
5883 5882 5882 5881 5880 5878 5877 5875 5874 5872 5871 5869 5867 5865 5864 5863 5861 5859 5857 5856 5854 5852 5851 5849 5846 5844 5842 5840 5838 5835 5833 5831 5829 5826 5824 5822 5820 5819 5817 5816 5814 5813 5813
5877 5876 5876 5875 5873 5872 5871 5869 5868 5866 5865 5863 5861 5859 5857 5856 5854 5853 5851 5850 5848 5846 5844 5842 5840 5838 5835 5833 5831 5828 5826 5824 5821 5819 5817 5815 5813 5811 5810 5808 5807 5806 5805
5871 5869 5869 5868 5867 5865 5864 5862 5861 5859 5858 5856 5855 5852 5850 5849 5848 5846 5845 5843 5841 5839 5837 5835 5833 5831 5828 5826 5823 5821 5819 5816 5814 5811 5809 5807 5805 5803 5802 5801 5799 5798 5797
5863 5862 5861 5860 5859 5857 5856 5855 5853 5852 5851 5849 5848 5846 5843 5842 5841 5840 5838 5837 5834 5832 5830 5828 5826 5823 5821 5819 5816 5813 5811 5809 5806 5804 5802 5799 5798 5796 5794 5793 5791 5790 5788
5855 5854 5853 5852 5851 5850 5848 5846 5845 5844 5843 5842 5840 5839 5837 5835 5834 5833 5831 5829 5827 5825 5823 5821 5818 5816 5813 5811 5808 5806 5803 5801 5798 5796 5794 5792 5790 5788 5786 5784 5783 5781 5779
5847 5846 5844 5844 5842 5841 5840 5838 5837 5836 5835 5834 5832 5831 5829 5828 5827 5825 5823 5822 5820 5818 5815 5813 5811 5808 5805 5802 5800 5797 5794 5792 5790 5787 5785 5783 5781 5778 5777 5775 5774 5772 5770
5838 5837 5836 5835 5834 5833 5832 5830 5829 5828 5827 5826 5824 5823 5821 5820 5818 5817 5815 5813 5811 5809 5806 5804 5802 5799 5796 5793 5790 5788 5785 5783 5781 5778 5775 5773 5771 5769 5767 5766 5764 5762 5761
5829 5828 5827 5826 5825 5824 5823 5821 5820 5819 5818 5817 5816 5814 5812 5811 5809 5807 5805 5803 5801 5799 5796 5794 5792 5789 5787 5784 5780 5778 5775 5773 5771 5768 5766 5763 5761 5760 5758 5756 5754 5753 5751
5820 5819 5818 5817 5816 5815 5814 5813 5811 5810 5809 5807 5806 5804 5803 5801 5799 5797 5795 5793 5791 5789 5786 5784 5781 5779 5776 5774 5771 5767 5765 5762 5760 5758 5756 5754 5752 5750 5748 5746 5744 5743 5742
5811 5810 5809 5808 5807 5805 5804 5803 5802 5800 5799 5797 5795 5794 5792 5790 5788 5786 5785 5783 5780 5778 5776 5773 5771 5768 5766 5763 5760 5757 5755 5752 5750 5748 5746 5744 5742 5740 5738 5736 5734 5733 5732
5801 5800 5799 5798 5797 5795 5794 5793 5792 5790 5789 5787 5785 5783 5782 5779 5777 5775 5774 5772 5769 5766 5765 5762 5760 5757 5755 5752 5749 5747 5744 5742 5740 5738 5736 5734 5732 5730 5729 5727 5725 5724 5723
5791 5790 5789 5788 5787 5786 5784 5783 5781 5780 5778 5776 5774 5772 5771 5768 5766 5764 5762 5761 5758 5756 5754 5752 5750 5747 5744 5741 5739 5736 5734 5732 5730 5728 5726 5724 5722 5721 5719 5718 5716 5715 5714
5782 5780 5779 5778 5777 5775 5774 5772 5771 5769 5767 5765 5764 5762 5759 5757 5754 5753 5751 5749 5747 5745 5743 5741 5738 5736 5734 5731 5729 5726 5724 5722 5720 5718 5716 5715 5713 5712 5710 5709 5707 5705 5704
5772 5771 5770 5768 5767 5765 5764 5762 5760 5758 5757 5755 5753 5750 5748 5746 5744 5742 5740 5738 5736 5734 5732 5730 5727 5725 5723 5721 5719 5716 5714 5712 5710 5708 5706 5705 5703 5702 5701 5699 5698 5696 5695
Wind_Speed
9 10 8 7 7 8 8 7 8 8 8 7 7 7 8 8 8 7 7 7 8 8 7 7 8 8 8 10 11 10 11 11 11 12 12 12 12 13 13 13 14 13 14
8 8 9 7 8 8 8 7 7 8 8 8 7 8 8 8 8 8 7 8 8 8 9 8 9 9 9 10 11 10 11 12 12 12 13 14 14 14 14 14 14 14 14
7 7 7 8 8 8 7 7 7 8 8 8 8 8 9 10 9 10 9 9 9 10 11 10 10 10 10 11 10 10 11 12 13 13 13 14 15 16 16 16 16 16 17
5 5 6 7 8 8 7 7 7 8 9 9 9 10 10 10 10 10 10 10 11 11 12 11 11 11 11 12 12 11 11 12 13 13 14 15 15 16 16 17 18 18 18
5 5 6 7 7 8 8 8 8 9 10 10 10 11 10 11 11 11 11 12 12 12 13 13 12 12 13 13 13 12 12 12 13 14 14 15 15 16 17 18 19 20 20
7 6 7 7 7 8 8 8 9 10 10 11 11 11 11 12 12 13 12 12 13 14 14 14 14 15 14 14 15 14 13 14 14 15 15 15 16 16 17 18 19 20 21
8 8 8 8 9 9 9 9 10 11 12 12 12 13 13 13 13 14 14 14 14 15 15 16 17 17 16 16 16 16 15 15 15 16 16 16 16 17 18 18 18 19 20
11 10 10 10 10 10 11 11 11 12 13 14 14 14 15 15 15 15 15 16 16 16 17 18 19 19 18 17 17 17 17 17 18 18 18 18 18 18 19 20 19 20 20
13 13 13 12 12 12 12 12 12 13 14 15 16 16 16 17 17 17 17 18 18 19 19 19 20 20 20 19 19 18 19 19 20 20 20 20 20 20 21 21 21 21 21
17 16 15 15 14 14 14 15 15 15 16 17 18 18 18 18 19 19 19 20 20 20 21 21 21 21 21 20 20 20 20 21 22 22 22 22 22 22 22 23 23 23 24
19 18 17 17 17 17 17 18 18 18 19 19 20 21 20 20 20 20 21 21 21 22 22 23 23 22 21 21 22 22 23 23 24 24 24 24 23 23 23 24 24 25 25
20 20 20 19 20 20 20 19 20 21 21 22 22 22 23 23 22 22 22 22 23 23 24 25 25 24 24 24 24 24 25 25 26 26 26 25 25 25 25 25 25 25 26
22 23 22 22 23 23 22 22 23 23 24 25 25 24 25 24 24 23 23 23 24 25 25 25 26 26 26 26 26 26 26 26 27 27 27 28 27 27 26 26 26 27 27
25 25 25 25 25 25 25 25 25 25 25 25 26 26 26 26 25 24 24 25 25 25 26 26 27 27 28 28 28 28 27 27 28 28 29 29 29 29 28 27 27 28 29
27 28 27 28 28 28 27 26 26 27 27 27 28 28 27 26 26 25 25 26 26 27 27 27 28 28 29 28 28 27 28 28 28 28 29 29 29 29 29 29 29 29 29
30 30 31 30 30 29 28 28 28 29 28 28 28 28 27 28 27 26 27 27 27 28 28 28 29 29 29 29 29 29 29 29 29 29 30 29 29 29 30 30 29 30 30
32 32 32 32 31 30 30 30 30 31 30 29 28 29 28 28 28 27 28 28 29 29 29 29 30 30 30 30 30 30 30 30 30 30 30 30 30 30 30 30 31 31 31
32 33 34 33 31 30 30 31 32 31 31 30 30 31 30 29 30 29 30 30 31 31 31 31 31 31 32 32 32 31 31 31 31 31 31 31 30 30 30 31 31 31 31
32 33 33 32 32 32 32 33 33 33 32 32 32 32 32 32 32 32 33 33 34 34 34 34 33 33 33 33 33 33 33 32 32 32 32 32 32 31 31 31 31 31 31
33 33 34 33 33 34 34 33 33 34 33 33 34 34 34 35 35 35 35 35 36 35 35 35 35 35 35 35 35 35 34 33 33 33 33 32 32 32 32 31 31 31 31
34 34 34 34 34 34 34 34 34 35 36 35 35 36 36 36 36 36 36 37 37 37 37 37 36 36 36 36 36 36 35 33 33 33 32 32 32 32 32 31 31 30 30
34 34 34 34 34 34 35 35 35 36 36 37 37 37 36 37 37 38 38 38 37 38 38 37 37 37 37 37 36 36 35 34 33 32 32 32 32 32 31 31 31 30 30
35 35 35 35 35 35 35 36 36 37 38 39 38 37 37 37 37 37 38 38 37 38 38 37 37 37 37 36 36 36 35 34 33 32 32 32 32 31 31 30 30 29 29
34 35 35 35 35 35 35 36 36 37 38 38 37 37 38 38 37 37 37 38 38 37 37 37 37 37 37 36 35 34 34 34 33 32 32 32 31 31 31 31 30 30 30
34 34 34 34 34 34 34 35 36 37 36 36 36 37 39 39 38 37 37 37 37 36 36 36 36 35 34 34 34 33 33 33 33 32 31 31 31 31 31 31 30 29 28
33 32 32 32 32 33 34 34 34 34 34 35 36 36 35 35 35 36 36 35 35 35 34 34 34 34 34 33 33 32 33 33 32 32 32 31 31 31 30 30 29 28 27
Wind_Direction
25 25 28 32 34 27 26 26 23 23 22 21 20 17 14 10 6 5 7 5 2 358 348 336 327 317 312 308 306 292 283 273 268 266 262 264 262 261 262 265 267 269 269
21 20 19 24 25 21 19 21 20 16 14 13 10 6 5 2 356 355 356 351 347 342 335 330 327 322 317 315 308 302 292 284 277 271 266 266 268 267 266 268 269 270 270
16 14 13 12 14 12 9 9 7 3 1 357 352 350 352 350 348 347 344 342 340 335 330 327 323 320 320 320 316 308 301 292 287 281 272 270 270 273 269 270 270 271 272
357 355 356 3 2 358 355 353 350 351 349 346 343 340 339 340 340 341 338 338 335 334 330 328 324 323 323 318 315 312 307 300 293 287 280 275 272 271 271 272 272 272 271
331 333 337 346 347 344 339 339 342 341 341 340 335 333 330 328 329 332 331 331 330 330 327 324 321 318 320 320 315 308 308 306 300 292 287 281 277 275 272 271 273 274 273
313 319 325 329 334 336 335 333 334 334 331 329 326 324 322 321 320 322 321 323 324 325 324 322 319 313 311 312 312 308 305 302 303 298 292 287 281 280 278 273 273 274 275
303 309 315 313 316 320 324 322 323 323 322 320 317 316 316 318 316 316 313 313 316 317 318 318 317 311 306 305 308 308 306 303 300 298 294 293 288 285 283 279 277 276 275
297 301 303 304 304 307 311 312 313 315 316 316 313 311 311 313 313 312 311 310 310 311 312 314 315 313 308 305 304 304 303 301 300 297 293 293 292 290 287 283 279 276 274
294 296 297 296 298 300 301 303 304 306 308 310 310 308 309 310 310 310 308 308 307 307 308 310 311 310 306 304 302 301 301 299 298 295 293 291 290 288 286 283 279 277 276
289 293 294 295 297 297 297 297 298 300 303 304 305 304 304 306 307 307 307 306 304 304 305 306 307 306 303 301 300 299 298 297 297 295 294 291 288 287 286 284 280 278 278
284 288 289 289 292 293 295 296 295 296 298 299 300 300 298 301 303 303 304 305 303 303 304 305 306 306 302 299 298 295 295 295 294 292 291 290 287 286 286 283 280 279 279
279 283 285 285 286 288 290 291 293 293 293 294 294 295 296 297 297 299 300 301 301 302 302 302 303 304 303 300 297 295 294 294 294 292 289 289 286 286 284 283 282 280 279
278 280 281 282 283 284 285 287 288 290 292 292 291 292 295 294 293 295 297 297 298 299 299 301 301 302 302 300 297 296 294 293 293 292 290 288 285 285 284 283 282 281 281
278 280 278 278 280 281 281 282 284 286 290 292 293 292 292 292 291 293 295 295 296 298 299 300 300 300 300 299 297 296 294 293 293 292 290 287 287 285 285 284 284 283 282
280 280 281 281 281 281 282 282 284 285 288 289 291 291 290 290 290 293 295 295 297 298 298 298 298 299 299 298 297 296 294 293 292 291 290 288 288 287 285 284 284 283 282
278 280 280 282 281 282 282 283 285 287 288 289 289 290 289 290 292 294 296 296 297 297 297 297 297 298 297 297 296 295 294 293 293 292 289 289 288 287 285 285 285 284 283
275 277 278 278 281 283 284 282 284 285 286 286 288 289 290 291 294 294 294 295 296 296 296 297 296 296 296 295 294 295 294 294 293 293 291 289 288 286 286 286 286 285 285
278 278 278 280 281 283 284 284 283 282 283 285 286 287 288 290 292 293 293 294 295 295 295 295 296 296 295 294 293 293 293 293 293 292 291 288 287 285 285 285 285 286 285
277 279 280 282 283 285 285 286 284 281 281 283 284 286 287 288 290 290 292 293 294 294 294 294 294 294 294 294 293 292 292 291 291 290 289 288 285 286 286 285 284 285 284
278 280 280 281 282 284 284 284 285 283 283 283 284 286 288 288 288 289 290 292 293 292 292 292 293 293 293 293 293 291 290 289 290 290 288 287 286 286 286 287 286 284 284
280 283 283 282 283 285 286 285 284 284 285 285 285 286 288 288 288 288 289 290 291 291 291 291 292 292 293 293 292 291 289 288 288 289 287 287 287 288 287 287 286 284 284
281 283 283 283 283 283 284 284 284 285 285 286 287 288 288 287 287 287 287 288 288 289 291 291 292 292 292 291 290 290 288 287 287 287 287 288 288 288 287 287 286 284 284
279 280 280 281 281 281 282 283 283 284 285 285 286 286 287 287 285 285 287 287 289 289 290 291 292 292 292 292 291 289 288 287 286 286 286 287 288 287 286 287 286 285 284
279 279 280 280 280 281 282 283 284 285 285 285 286 287 287 287 287 286 286 288 289 289 290 291 291 291 292 291 290 290 288 287 288 286 285 286 286 286 285 285 285 285 284
280 281 280 280 281 283 284 284 285 286 286 286 286 287 287 287 285 286 288 288 288 288 290 291 291 291 291 291 290 289 288 287 288 286 285 284 284 284 284 284 285 286 285
280 280 280 282 284 284 284 285 287 287 287 288 288 289 288 288 287 287 288 288 289 289 290 291 291 291 290 290 289 288 288 287 287 286 285 284 283 283 284 283 284 285 285